Year,Month,Day,Hour,Minute,Value (Times are PST for temperature in C)
2017,05,28,00,00,16.00
2017,05,28,00,01,16.00
2017,05,28,00,02,16.00
2017,05,28,00,03,16.00
2017,05,28,00,04,15.90
2017,05,28,00,05,15.90
2017,05,28,00,06,15.90
2017,05,28,00,07,15.90
2017,05,28,00,08,15.80
2017,05,28,00,09,15.80
2017,05,28,00,10,15.80
2017,05,28,00,11,15.80
2017,05,28,00,12,15.70
2017,05,28,00,13,15.70
2017,05,28,00,14,15.60
2017,05,28,00,15,15.60
2017,05,28,00,16,15.50
2017,05,28,00,17,15.50
2017,05,28,00,18,15.40
2017,05,28,00,19,15.40
2017,05,28,00,20,15.40
2017,05,28,00,21,15.40
2017,05,28,00,22,15.40
2017,05,28,00,23,15.30
2017,05,28,00,24,15.30
2017,05,28,00,25,15.30
2017,05,28,00,26,15.30
2017,05,28,00,27,15.30
2017,05,28,00,28,15.40
2017,05,28,00,29,15.30
2017,05,28,00,30,15.30
2017,05,28,00,31,15.30
2017,05,28,00,32,15.30
2017,05,28,00,33,15.30
2017,05,28,00,34,15.30
2017,05,28,00,35,15.20
2017,05,28,00,36,15.20
2017,05,28,00,37,15.20
2017,05,28,00,38,15.20
2017,05,28,00,39,15.20
2017,05,28,00,40,15.20
2017,05,28,00,41,15.20
2017,05,28,00,42,15.20
2017,05,28,00,43,15.20
2017,05,28,00,44,15.20
2017,05,28,00,45,15.20
2017,05,28,00,46,15.20
2017,05,28,00,47,15.20
2017,05,28,00,48,15.20
2017,05,28,00,49,15.20
2017,05,28,00,50,15.30
2017,05,28,00,51,15.30
2017,05,28,00,52,15.30
2017,05,28,00,53,15.30
2017,05,28,00,54,15.30
2017,05,28,00,55,15.20
2017,05,28,00,56,15.20
2017,05,28,00,57,15.20
2017,05,28,00,58,15.20
2017,05,28,00,59,15.20
2017,05,28,01,00,15.20
2017,05,28,01,01,15.20
2017,05,28,01,02,15.20
2017,05,28,01,03,15.20
2017,05,28,01,04,15.20
2017,05,28,01,05,15.20
2017,05,28,01,06,15.20
2017,05,28,01,07,15.10
2017,05,28,01,08,15.10
2017,05,28,01,09,15.10
2017,05,28,01,10,15.00
2017,05,28,01,11,15.00
2017,05,28,01,12,14.90
2017,05,28,01,13,14.90
2017,05,28,01,14,14.90
2017,05,28,01,15,14.90
2017,05,28,01,16,14.90
2017,05,28,01,17,14.90
2017,05,28,01,18,14.90
2017,05,28,01,19,14.90
2017,05,28,01,20,14.90
2017,05,28,01,21,14.90
2017,05,28,01,22,14.90
2017,05,28,01,23,14.90
2017,05,28,01,24,14.90
2017,05,28,01,25,14.90
2017,05,28,01,26,14.90
2017,05,28,01,27,14.90
2017,05,28,01,28,14.90
2017,05,28,01,29,14.90
2017,05,28,01,30,14.90
2017,05,28,01,31,14.90
2017,05,28,01,32,15.00
2017,05,28,01,33,15.00
2017,05,28,01,34,15.10
2017,05,28,01,35,15.10
2017,05,28,01,36,15.10
2017,05,28,01,37,15.10
2017,05,28,01,38,15.00
2017,05,28,01,39,15.00
2017,05,28,01,40,15.00
2017,05,28,01,41,15.00
2017,05,28,01,42,15.00
2017,05,28,01,43,15.10
2017,05,28,01,44,15.10
2017,05,28,01,45,15.10
2017,05,28,01,46,15.20
2017,05,28,01,47,15.20
2017,05,28,01,48,15.20
2017,05,28,01,49,15.20
2017,05,28,01,50,15.10
2017,05,28,01,51,15.10
2017,05,28,01,52,15.10
2017,05,28,01,53,15.10
2017,05,28,01,54,15.10
2017,05,28,01,55,15.10
2017,05,28,01,56,15.10
2017,05,28,01,57,15.10
2017,05,28,01,58,15.10
2017,05,28,01,59,15.00
2017,05,28,02,00,15.00
2017,05,28,02,01,14.90
2017,05,28,02,02,14.90
2017,05,28,02,03,14.90
2017,05,28,02,04,14.80
2017,05,28,02,05,14.80
2017,05,28,02,06,14.80
2017,05,28,02,07,14.70
2017,05,28,02,08,14.70
2017,05,28,02,09,14.70
2017,05,28,02,10,14.70
2017,05,28,02,11,14.60
2017,05,28,02,12,14.60
2017,05,28,02,13,14.60
2017,05,28,02,14,14.60
2017,05,28,02,15,14.60
2017,05,28,02,16,14.50
2017,05,28,02,17,14.50
2017,05,28,02,18,14.40
2017,05,28,02,19,14.40
2017,05,28,02,20,14.40
2017,05,28,02,21,14.30
2017,05,28,02,22,14.30
2017,05,28,02,23,14.20
2017,05,28,02,24,14.20
2017,05,28,02,25,14.20
2017,05,28,02,26,14.20
2017,05,28,02,27,14.20
2017,05,28,02,28,14.10
2017,05,28,02,29,14.10
2017,05,28,02,30,14.10
2017,05,28,02,31,14.10
2017,05,28,02,32,14.10
2017,05,28,02,33,14.10
2017,05,28,02,34,14.00
2017,05,28,02,35,14.00
2017,05,28,02,36,14.00
2017,05,28,02,37,14.00
2017,05,28,02,38,14.00
2017,05,28,02,39,14.00
2017,05,28,02,40,14.00
2017,05,28,02,41,14.00
2017,05,28,02,42,14.00
2017,05,28,02,43,14.00
2017,05,28,02,44,14.00
2017,05,28,02,45,14.00
2017,05,28,02,46,14.00
2017,05,28,02,47,14.00
2017,05,28,02,48,14.00
2017,05,28,02,49,14.00
2017,05,28,02,50,14.00
2017,05,28,02,51,13.90
2017,05,28,02,52,13.90
2017,05,28,02,53,13.90
2017,05,28,02,54,13.90
2017,05,28,02,55,13.80
2017,05,28,02,56,13.80
2017,05,28,02,57,13.80
2017,05,28,02,58,13.80
2017,05,28,02,59,13.80
2017,05,28,03,00,13.70
2017,05,28,03,01,13.70
2017,05,28,03,02,13.70
2017,05,28,03,03,13.70
2017,05,28,03,04,13.70
2017,05,28,03,05,13.70
2017,05,28,03,06,13.70
2017,05,28,03,07,13.70
2017,05,28,03,08,13.70
2017,05,28,03,09,13.80
2017,05,28,03,10,13.80
2017,05,28,03,11,13.80
2017,05,28,03,12,13.70
2017,05,28,03,13,13.70
2017,05,28,03,14,13.70
2017,05,28,03,15,13.70
2017,05,28,03,16,13.70
2017,05,28,03,17,13.70
2017,05,28,03,18,13.70
2017,05,28,03,19,13.70
2017,05,28,03,20,13.70
2017,05,28,03,21,13.70
2017,05,28,03,22,13.70
2017,05,28,03,23,13.70
2017,05,28,03,24,13.70
2017,05,28,03,25,13.70
2017,05,28,03,26,13.70
2017,05,28,03,27,13.70
2017,05,28,03,28,13.70
2017,05,28,03,29,13.70
2017,05,28,03,30,13.70
2017,05,28,03,31,13.70
2017,05,28,03,32,13.70
2017,05,28,03,33,13.80
2017,05,28,03,34,13.70
2017,05,28,03,35,13.80
2017,05,28,03,36,13.80
2017,05,28,03,37,13.80
2017,05,28,03,38,13.80
2017,05,28,03,39,13.80
2017,05,28,03,40,13.80
2017,05,28,03,41,13.80
2017,05,28,03,42,13.90
2017,05,28,03,43,13.90
2017,05,28,03,44,14.00
2017,05,28,03,45,14.00
2017,05,28,03,46,14.00
2017,05,28,03,47,14.00
2017,05,28,03,48,14.00
2017,05,28,03,49,14.00
2017,05,28,03,50,14.10
2017,05,28,03,51,14.10
2017,05,28,03,52,14.10
2017,05,28,03,53,14.10
2017,05,28,03,54,14.10
2017,05,28,03,55,14.20
2017,05,28,03,56,14.20
2017,05,28,03,57,14.20
2017,05,28,03,58,14.20
2017,05,28,03,59,14.20
2017,05,28,04,00,14.10
2017,05,28,04,01,14.10
2017,05,28,04,02,14.20
2017,05,28,04,03,14.20
2017,05,28,04,04,14.20
2017,05,28,04,05,14.20
2017,05,28,04,06,14.30
2017,05,28,04,07,14.30
2017,05,28,04,08,14.30
2017,05,28,04,09,14.30
2017,05,28,04,10,14.30
2017,05,28,04,11,14.30
2017,05,28,04,12,14.20
2017,05,28,04,13,14.20
2017,05,28,04,14,14.10
2017,05,28,04,15,14.10
2017,05,28,04,16,14.00
2017,05,28,04,17,14.00
2017,05,28,04,18,13.90
2017,05,28,04,19,13.90
2017,05,28,04,20,13.90
2017,05,28,04,21,13.90
2017,05,28,04,22,13.80
2017,05,28,04,23,13.80
2017,05,28,04,24,13.80
2017,05,28,04,25,13.70
2017,05,28,04,26,13.70
2017,05,28,04,27,13.70
2017,05,28,04,28,13.70
2017,05,28,04,29,13.80
2017,05,28,04,30,13.80
2017,05,28,04,31,13.80
2017,05,28,04,32,13.80
2017,05,28,04,33,13.80
2017,05,28,04,34,13.80
2017,05,28,04,35,13.80
2017,05,28,04,36,13.80
2017,05,28,04,37,13.70
2017,05,28,04,38,13.70
2017,05,28,04,39,13.70
2017,05,28,04,40,13.60
2017,05,28,04,41,13.50
2017,05,28,04,42,13.50
2017,05,28,04,43,13.50
2017,05,28,04,44,13.40
2017,05,28,04,45,13.40
2017,05,28,04,46,13.40
2017,05,28,04,47,13.40
2017,05,28,04,48,13.40
2017,05,28,04,49,13.40
2017,05,28,04,50,13.40
2017,05,28,04,51,13.40
2017,05,28,04,52,13.40
2017,05,28,04,53,13.30
2017,05,28,04,54,13.30
2017,05,28,04,55,13.30
2017,05,28,04,56,13.30
2017,05,28,04,57,13.30
2017,05,28,04,58,13.30
2017,05,28,04,59,13.30
2017,05,28,05,00,13.30
2017,05,28,05,01,13.30
2017,05,28,05,02,13.30
2017,05,28,05,03,13.30
2017,05,28,05,04,13.30
2017,05,28,05,05,13.30
2017,05,28,05,06,13.30
2017,05,28,05,07,13.30
2017,05,28,05,08,13.30
2017,05,28,05,09,13.30
2017,05,28,05,10,13.30
2017,05,28,05,11,13.30
2017,05,28,05,12,13.40
2017,05,28,05,13,13.40
2017,05,28,05,14,13.40
2017,05,28,05,15,13.40
2017,05,28,05,16,13.40
2017,05,28,05,17,13.40
2017,05,28,05,18,13.40
2017,05,28,05,19,13.40
2017,05,28,05,20,13.40
2017,05,28,05,21,13.40
2017,05,28,05,22,13.40
2017,05,28,05,23,13.40
2017,05,28,05,24,13.50
2017,05,28,05,25,13.50
2017,05,28,05,26,13.50
2017,05,28,05,27,13.40
2017,05,28,05,28,13.40
2017,05,28,05,29,13.40
2017,05,28,05,30,13.40
2017,05,28,05,31,13.40
2017,05,28,05,32,13.50
2017,05,28,05,33,13.50
2017,05,28,05,34,13.50
2017,05,28,05,35,13.60
2017,05,28,05,36,13.60
2017,05,28,05,37,13.60
2017,05,28,05,38,13.60
2017,05,28,05,39,13.60
2017,05,28,05,40,13.60
2017,05,28,05,41,13.60
2017,05,28,05,42,13.60
2017,05,28,05,43,13.60
2017,05,28,05,44,13.50
2017,05,28,05,45,13.50
2017,05,28,05,46,13.50
2017,05,28,05,47,13.50
2017,05,28,05,48,13.50
2017,05,28,05,49,13.40
2017,05,28,05,50,13.40
2017,05,28,05,51,13.40
2017,05,28,05,52,13.50
2017,05,28,05,53,13.50
2017,05,28,05,54,13.50
2017,05,28,05,55,13.60
2017,05,28,05,56,13.60
2017,05,28,05,57,13.60
2017,05,28,05,58,13.60
2017,05,28,05,59,13.60
2017,05,28,06,00,13.70
2017,05,28,06,01,13.70
2017,05,28,06,02,13.60
2017,05,28,06,03,13.70
2017,05,28,06,04,13.70
2017,05,28,06,05,13.70
2017,05,28,06,06,13.70
2017,05,28,06,07,13.70
2017,05,28,06,08,13.70
2017,05,28,06,09,13.70
2017,05,28,06,10,13.70
2017,05,28,06,11,13.70
2017,05,28,06,12,13.80
2017,05,28,06,13,13.80
2017,05,28,06,14,13.80
2017,05,28,06,15,13.90
2017,05,28,06,16,13.90
2017,05,28,06,17,13.90
2017,05,28,06,18,14.00
2017,05,28,06,19,14.00
2017,05,28,06,20,14.00
2017,05,28,06,21,13.90
2017,05,28,06,22,13.90
2017,05,28,06,23,13.90
2017,05,28,06,24,13.90
2017,05,28,06,25,13.90
2017,05,28,06,26,13.90
2017,05,28,06,27,13.90
2017,05,28,06,28,13.90
2017,05,28,06,29,14.00
2017,05,28,06,30,14.00
2017,05,28,06,31,14.00
2017,05,28,06,32,14.00
2017,05,28,06,33,14.10
2017,05,28,06,34,14.10
2017,05,28,06,35,14.10
2017,05,28,06,36,14.20
2017,05,28,06,37,14.20
2017,05,28,06,38,14.20
2017,05,28,06,39,14.30
2017,05,28,06,40,14.30
2017,05,28,06,41,14.40
2017,05,28,06,42,14.40
2017,05,28,06,43,14.50
2017,05,28,06,44,14.50
2017,05,28,06,45,14.60
2017,05,28,06,46,14.70
2017,05,28,06,47,14.70
2017,05,28,06,48,14.80
2017,05,28,06,49,14.90
2017,05,28,06,50,14.90
2017,05,28,06,51,15.00
2017,05,28,06,52,15.10
2017,05,28,06,53,15.20
2017,05,28,06,54,15.20
2017,05,28,06,55,15.30
2017,05,28,06,56,15.40
2017,05,28,06,57,15.60
2017,05,28,06,58,15.70
2017,05,28,06,59,15.80
2017,05,28,07,00,15.90
2017,05,28,07,01,16.10
2017,05,28,07,02,16.30
2017,05,28,07,03,16.40
2017,05,28,07,04,16.40
2017,05,28,07,05,16.50
2017,05,28,07,06,16.50
2017,05,28,07,07,16.50
2017,05,28,07,08,16.50
2017,05,28,07,09,16.50
2017,05,28,07,10,16.60
2017,05,28,07,11,16.60
2017,05,28,07,12,16.70
2017,05,28,07,13,16.80
2017,05,28,07,14,17.00
2017,05,28,07,15,17.10
2017,05,28,07,16,17.20
2017,05,28,07,17,17.30
2017,05,28,07,18,17.30
2017,05,28,07,19,17.20
2017,05,28,07,20,17.20
2017,05,28,07,21,17.10
2017,05,28,07,22,17.10
2017,05,28,07,23,17.10
2017,05,28,07,24,17.10
2017,05,28,07,25,17.10
2017,05,28,07,26,17.00
2017,05,28,07,27,17.00
2017,05,28,07,28,16.90
2017,05,28,07,29,16.90
2017,05,28,07,30,16.90
2017,05,28,07,31,16.90
2017,05,28,07,32,16.90
2017,05,28,07,33,16.90
2017,05,28,07,34,16.90
2017,05,28,07,35,17.00
2017,05,28,07,36,17.00
2017,05,28,07,37,17.10
2017,05,28,07,38,17.10
2017,05,28,07,39,17.20
2017,05,28,07,40,17.20
2017,05,28,07,41,17.20
2017,05,28,07,42,17.30
2017,05,28,07,43,17.30
2017,05,28,07,44,17.30
2017,05,28,07,45,17.30
2017,05,28,07,46,17.40
2017,05,28,07,47,17.40
2017,05,28,07,48,17.50
2017,05,28,07,49,17.60
2017,05,28,07,50,17.60
2017,05,28,07,51,17.70
2017,05,28,07,52,17.70
2017,05,28,07,53,17.80
2017,05,28,07,54,17.80
2017,05,28,07,55,17.80
2017,05,28,07,56,17.90
2017,05,28,07,57,17.90
2017,05,28,07,58,17.90
2017,05,28,07,59,18.00
2017,05,28,08,00,18.10
2017,05,28,08,01,18.10
2017,05,28,08,02,18.20
2017,05,28,08,03,18.20
2017,05,28,08,04,18.20
2017,05,28,08,05,18.20
2017,05,28,08,06,18.20
2017,05,28,08,07,18.30
2017,05,28,08,08,18.30
2017,05,28,08,09,18.30
2017,05,28,08,10,18.30
2017,05,28,08,11,18.20
2017,05,28,08,12,18.20
2017,05,28,08,13,18.10
2017,05,28,08,14,18.10
2017,05,28,08,15,18.10
2017,05,28,08,16,18.10
2017,05,28,08,17,18.10
2017,05,28,08,18,18.10
2017,05,28,08,19,18.10
2017,05,28,08,20,18.00
2017,05,28,08,21,18.00
2017,05,28,08,22,18.00
2017,05,28,08,23,17.90
2017,05,28,08,24,17.90
2017,05,28,08,25,17.90
2017,05,28,08,26,17.90
2017,05,28,08,27,18.00
2017,05,28,08,28,18.10
2017,05,28,08,29,18.20
2017,05,28,08,30,18.20
2017,05,28,08,31,18.20
2017,05,28,08,32,18.40
2017,05,28,08,33,18.50
2017,05,28,08,34,18.60
2017,05,28,08,35,18.70
2017,05,28,08,36,18.80
2017,05,28,08,37,18.90
2017,05,28,08,38,18.90
2017,05,28,08,39,18.90
2017,05,28,08,40,18.90
2017,05,28,08,41,18.90
2017,05,28,08,42,19.00
2017,05,28,08,43,19.10
2017,05,28,08,44,19.10
2017,05,28,08,45,19.10
2017,05,28,08,46,19.10
2017,05,28,08,47,19.10
2017,05,28,08,48,19.10
2017,05,28,08,49,19.10
2017,05,28,08,50,19.10
2017,05,28,08,51,19.10
2017,05,28,08,52,19.10
2017,05,28,08,53,19.10
2017,05,28,08,54,19.10
2017,05,28,08,55,19.20
2017,05,28,08,56,19.20
2017,05,28,08,57,19.20
2017,05,28,08,58,19.20
2017,05,28,08,59,19.20
2017,05,28,09,00,19.30
2017,05,28,09,01,19.30
2017,05,28,09,02,19.30
2017,05,28,09,03,19.30
2017,05,28,09,04,19.30
2017,05,28,09,05,19.40
2017,05,28,09,06,19.40
2017,05,28,09,07,19.60
2017,05,28,09,08,19.60
2017,05,28,09,09,19.70
2017,05,28,09,10,19.80
2017,05,28,09,11,19.90
2017,05,28,09,12,20.00
2017,05,28,09,13,20.00
2017,05,28,09,14,20.10
2017,05,28,09,15,20.20
2017,05,28,09,16,20.30
2017,05,28,09,17,20.40
2017,05,28,09,18,20.60
2017,05,28,09,19,20.70
2017,05,28,09,20,20.80
2017,05,28,09,21,20.90
2017,05,28,09,22,21.00
2017,05,28,09,23,21.10
2017,05,28,09,24,21.20
2017,05,28,09,25,21.20
2017,05,28,09,26,21.20
2017,05,28,09,27,21.20
2017,05,28,09,28,21.10
2017,05,28,09,29,21.00
2017,05,28,09,30,21.00
2017,05,28,09,31,20.90
2017,05,28,09,32,20.90
2017,05,28,09,33,20.90
2017,05,28,09,34,20.80
2017,05,28,09,35,20.80
2017,05,28,09,36,20.70
2017,05,28,09,37,20.70
2017,05,28,09,38,20.70
2017,05,28,09,39,20.70
2017,05,28,09,40,20.80
2017,05,28,09,41,20.90
2017,05,28,09,42,21.00
2017,05,28,09,43,21.10
2017,05,28,09,44,21.20
2017,05,28,09,45,21.30
2017,05,28,09,46,21.40
2017,05,28,09,47,21.40
2017,05,28,09,48,21.40
2017,05,28,09,49,21.50
2017,05,28,09,50,21.60
2017,05,28,09,51,21.60
2017,05,28,09,52,21.70
2017,05,28,09,53,21.70
2017,05,28,09,54,21.70
2017,05,28,09,55,21.50
2017,05,28,09,56,21.40
2017,05,28,09,57,21.30
2017,05,28,09,58,21.20
2017,05,28,09,59,21.00
2017,05,28,10,00,20.80
2017,05,28,10,01,20.80
2017,05,28,10,02,20.80
2017,05,28,10,03,20.90
2017,05,28,10,04,21.00
2017,05,28,10,05,21.00
2017,05,28,10,06,21.00
2017,05,28,10,07,21.00
2017,05,28,10,08,21.00
2017,05,28,10,09,21.00
2017,05,28,10,10,21.10
2017,05,28,10,11,21.30
2017,05,28,10,12,21.30
2017,05,28,10,13,21.30
2017,05,28,10,14,21.30
2017,05,28,10,15,21.40
2017,05,28,10,16,21.40
2017,05,28,10,17,21.50
2017,05,28,10,18,21.50
2017,05,28,10,19,21.60
2017,05,28,10,20,21.70
2017,05,28,10,21,21.80
2017,05,28,10,22,21.80
2017,05,28,10,23,21.90
2017,05,28,10,24,21.90
2017,05,28,10,25,21.90
2017,05,28,10,26,22.00
2017,05,28,10,27,22.10
2017,05,28,10,28,22.20
2017,05,28,10,29,22.20
2017,05,28,10,30,22.20
2017,05,28,10,31,22.20
2017,05,28,10,32,22.20
2017,05,28,10,33,22.10
2017,05,28,10,34,22.10
2017,05,28,10,35,22.00
2017,05,28,10,36,22.00
2017,05,28,10,37,21.90
2017,05,28,10,38,21.90
2017,05,28,10,39,21.90
2017,05,28,10,40,22.00
2017,05,28,10,41,22.10
2017,05,28,10,42,22.20
2017,05,28,10,43,22.20
2017,05,28,10,44,22.20
2017,05,28,10,45,22.20
2017,05,28,10,46,22.20
2017,05,28,10,47,22.20
2017,05,28,10,48,22.20
2017,05,28,10,49,22.30
2017,05,28,10,50,22.40
2017,05,28,10,51,22.50
2017,05,28,10,52,22.60
2017,05,28,10,53,22.60
2017,05,28,10,54,22.60
2017,05,28,10,55,22.60
2017,05,28,10,56,22.60
2017,05,28,10,57,22.60
2017,05,28,10,58,22.70
2017,05,28,10,59,22.70
2017,05,28,11,00,22.70
2017,05,28,11,01,22.60
2017,05,28,11,02,22.60
2017,05,28,11,03,22.70
2017,05,28,11,04,22.70
2017,05,28,11,05,22.80
2017,05,28,11,06,22.80
2017,05,28,11,07,22.80
2017,05,28,11,08,22.80
2017,05,28,11,09,22.90
2017,05,28,11,10,23.00
2017,05,28,11,11,23.10
2017,05,28,11,12,23.00
2017,05,28,11,13,23.00
2017,05,28,11,14,23.00
2017,05,28,11,15,22.90
2017,05,28,11,16,22.80
2017,05,28,11,17,22.80
2017,05,28,11,18,22.70
2017,05,28,11,19,22.80
2017,05,28,11,20,22.80
2017,05,28,11,21,22.70
2017,05,28,11,22,22.70
2017,05,28,11,23,22.70
2017,05,28,11,24,22.70
2017,05,28,11,25,22.80
2017,05,28,11,26,22.90
2017,05,28,11,27,22.90
2017,05,28,11,28,22.90
2017,05,28,11,29,23.00
2017,05,28,11,30,22.90
2017,05,28,11,31,23.00
2017,05,28,11,32,23.00
2017,05,28,11,33,22.90
2017,05,28,11,34,22.80
2017,05,28,11,35,22.80
2017,05,28,11,36,22.70
2017,05,28,11,37,22.70
2017,05,28,11,38,22.70
2017,05,28,11,39,22.70
2017,05,28,11,40,22.70
2017,05,28,11,41,22.70
2017,05,28,11,42,22.70
2017,05,28,11,43,22.80
2017,05,28,11,44,22.90
2017,05,28,11,45,22.90
2017,05,28,11,46,22.80
2017,05,28,11,47,22.80
2017,05,28,11,48,22.70
2017,05,28,11,49,22.80
2017,05,28,11,50,22.80
2017,05,28,11,51,22.90
2017,05,28,11,52,23.00
2017,05,28,11,53,23.00
2017,05,28,11,54,23.00
2017,05,28,11,55,23.10
2017,05,28,11,56,23.10
2017,05,28,11,57,23.10
2017,05,28,11,58,23.10
2017,05,28,11,59,23.10
2017,05,28,12,00,23.10
2017,05,28,12,01,23.10
2017,05,28,12,02,23.00
2017,05,28,12,03,22.90
2017,05,28,12,04,22.80
2017,05,28,12,05,22.90
2017,05,28,12,06,22.90
2017,05,28,12,07,22.90
2017,05,28,12,08,23.00
2017,05,28,12,09,23.00
2017,05,28,12,10,23.10
2017,05,28,12,11,23.10
2017,05,28,12,12,23.20
2017,05,28,12,13,23.30
2017,05,28,12,14,23.30
2017,05,28,12,15,23.20
2017,05,28,12,16,23.20
2017,05,28,12,17,23.40
2017,05,28,12,18,23.50
2017,05,28,12,19,23.60
2017,05,28,12,20,23.60
2017,05,28,12,21,23.60
2017,05,28,12,22,23.60
2017,05,28,12,23,23.50
2017,05,28,12,24,23.40
2017,05,28,12,25,23.30
2017,05,28,12,26,23.20
2017,05,28,12,27,23.20
2017,05,28,12,28,23.30
2017,05,28,12,29,23.50
2017,05,28,12,30,23.60
2017,05,28,12,31,23.70
2017,05,28,12,32,23.80
2017,05,28,12,33,23.90
2017,05,28,12,34,23.80
2017,05,28,12,35,23.70
2017,05,28,12,36,23.70
2017,05,28,12,37,23.60
2017,05,28,12,38,23.60
2017,05,28,12,39,23.50
2017,05,28,12,40,23.50
2017,05,28,12,41,23.60
2017,05,28,12,42,23.60
2017,05,28,12,43,23.70
2017,05,28,12,44,23.70
2017,05,28,12,45,23.80
2017,05,28,12,46,23.80
2017,05,28,12,47,23.90
2017,05,28,12,48,23.90
2017,05,28,12,49,24.00
2017,05,28,12,50,24.10
2017,05,28,12,51,24.10
2017,05,28,12,52,24.00
2017,05,28,12,53,23.90
2017,05,28,12,54,23.90
2017,05,28,12,55,24.00
2017,05,28,12,56,24.10
2017,05,28,12,57,24.10
2017,05,28,12,58,24.10
2017,05,28,12,59,24.10
2017,05,28,13,00,24.10
2017,05,28,13,01,24.10
2017,05,28,13,02,24.10
2017,05,28,13,03,24.10
2017,05,28,13,04,24.20
2017,05,28,13,05,24.20
2017,05,28,13,06,24.20
2017,05,28,13,07,24.20
2017,05,28,13,08,24.30
2017,05,28,13,09,24.30
2017,05,28,13,10,24.30
2017,05,28,13,11,24.30
2017,05,28,13,12,24.20
2017,05,28,13,13,24.20
2017,05,28,13,14,24.10
2017,05,28,13,15,24.10
2017,05,28,13,16,24.20
2017,05,28,13,17,24.40
2017,05,28,13,18,24.70
2017,05,28,13,19,24.90
2017,05,28,13,20,25.10
2017,05,28,13,21,25.30
2017,05,28,13,22,25.50
2017,05,28,13,23,25.50
2017,05,28,13,24,25.40
2017,05,28,13,25,25.30
2017,05,28,13,26,25.10
2017,05,28,13,27,24.90
2017,05,28,13,28,24.90
2017,05,28,13,29,24.90
2017,05,28,13,30,25.00
2017,05,28,13,31,25.00
2017,05,28,13,32,25.10
2017,05,28,13,33,25.00
2017,05,28,13,34,24.90
2017,05,28,13,35,24.80
2017,05,28,13,36,24.70
2017,05,28,13,37,24.70
2017,05,28,13,38,24.70
2017,05,28,13,39,24.60
2017,05,28,13,40,24.60
2017,05,28,13,41,24.60
2017,05,28,13,42,24.60
2017,05,28,13,43,24.60
2017,05,28,13,44,24.60
2017,05,28,13,45,24.70
2017,05,28,13,46,24.90
2017,05,28,13,47,25.00
2017,05,28,13,48,25.10
2017,05,28,13,49,25.10
2017,05,28,13,50,25.20
2017,05,28,13,51,25.20
2017,05,28,13,52,25.20
2017,05,28,13,53,25.20
2017,05,28,13,54,25.10
2017,05,28,13,55,25.20
2017,05,28,13,56,25.20
2017,05,28,13,57,25.30
2017,05,28,13,58,25.40
2017,05,28,13,59,25.40
2017,05,28,14,00,25.40
2017,05,28,14,01,25.50
2017,05,28,14,02,25.60
2017,05,28,14,03,25.60
2017,05,28,14,04,25.50
2017,05,28,14,05,25.50
2017,05,28,14,06,25.40
2017,05,28,14,07,25.40
2017,05,28,14,08,25.40
2017,05,28,14,09,25.50
2017,05,28,14,10,25.60
2017,05,28,14,11,25.60
2017,05,28,14,12,25.70
2017,05,28,14,13,25.90
2017,05,28,14,14,26.00
2017,05,28,14,15,26.20
2017,05,28,14,16,26.30
2017,05,28,14,17,26.30
2017,05,28,14,18,26.30
2017,05,28,14,19,26.20
2017,05,28,14,20,26.20
2017,05,28,14,21,26.20
2017,05,28,14,22,26.20
2017,05,28,14,23,26.30
2017,05,28,14,24,26.20
2017,05,28,14,25,26.10
2017,05,28,14,26,26.10
2017,05,28,14,27,26.10
2017,05,28,14,28,26.20
2017,05,28,14,29,26.30
2017,05,28,14,30,26.30
2017,05,28,14,31,26.30
2017,05,28,14,32,26.30
2017,05,28,14,33,26.40
2017,05,28,14,34,26.30
2017,05,28,14,35,26.30
2017,05,28,14,36,26.40
2017,05,28,14,37,26.50
2017,05,28,14,38,26.50
2017,05,28,14,39,26.40
2017,05,28,14,40,26.30
2017,05,28,14,41,26.30
2017,05,28,14,42,26.30
2017,05,28,14,43,26.20
2017,05,28,14,44,26.20
2017,05,28,14,45,26.20
2017,05,28,14,46,26.20
2017,05,28,14,47,26.20
2017,05,28,14,48,26.20
2017,05,28,14,49,26.20
2017,05,28,14,50,26.20
2017,05,28,14,51,26.30
2017,05,28,14,52,26.40
2017,05,28,14,53,26.50
2017,05,28,14,54,26.60
2017,05,28,14,55,26.50
2017,05,28,14,56,26.50
2017,05,28,14,57,26.60
2017,05,28,14,58,26.60
2017,05,28,14,59,26.80
2017,05,28,15,00,26.90
2017,05,28,15,01,26.90
2017,05,28,15,02,26.90
2017,05,28,15,03,26.80
2017,05,28,15,04,26.80
2017,05,28,15,05,26.70
2017,05,28,15,06,26.80
2017,05,28,15,07,26.80
2017,05,28,15,08,26.70
2017,05,28,15,09,26.60
2017,05,28,15,10,26.50
2017,05,28,15,11,26.40
2017,05,28,15,12,26.40
2017,05,28,15,13,26.40
2017,05,28,15,14,26.50
2017,05,28,15,15,26.50
2017,05,28,15,16,26.60
2017,05,28,15,17,26.70
2017,05,28,15,18,26.70
2017,05,28,15,19,26.70
2017,05,28,15,20,26.50
2017,05,28,15,21,26.40
2017,05,28,15,22,26.40
2017,05,28,15,23,26.40
2017,05,28,15,24,26.40
2017,05,28,15,25,26.50
2017,05,28,15,26,26.50
2017,05,28,15,27,26.60
2017,05,28,15,28,26.60
2017,05,28,15,29,26.70
2017,05,28,15,30,26.70
2017,05,28,15,31,26.60
2017,05,28,15,32,26.60
2017,05,28,15,33,26.60
2017,05,28,15,34,26.50
2017,05,28,15,35,26.50
2017,05,28,15,36,26.50
2017,05,28,15,37,26.50
2017,05,28,15,38,26.50
2017,05,28,15,39,26.40
2017,05,28,15,40,26.40
2017,05,28,15,41,26.40
2017,05,28,15,42,26.50
2017,05,28,15,43,26.60
2017,05,28,15,44,26.80
2017,05,28,15,45,26.80
2017,05,28,15,46,26.80
2017,05,28,15,47,26.70
2017,05,28,15,48,26.70
2017,05,28,15,49,26.60
2017,05,28,15,50,26.60
2017,05,28,15,51,26.70
2017,05,28,15,52,26.70
2017,05,28,15,53,26.70
2017,05,28,15,54,26.80
2017,05,28,15,55,26.90
2017,05,28,15,56,26.90
2017,05,28,15,57,26.80
2017,05,28,15,58,26.80
2017,05,28,15,59,26.80
2017,05,28,16,00,26.90
2017,05,28,16,01,26.90
2017,05,28,16,02,27.00
2017,05,28,16,03,27.00
2017,05,28,16,04,27.00
2017,05,28,16,05,27.10
2017,05,28,16,06,27.10
2017,05,28,16,07,27.10
2017,05,28,16,08,27.10
2017,05,28,16,09,27.00
2017,05,28,16,10,26.90
2017,05,28,16,11,27.00
2017,05,28,16,12,27.10
2017,05,28,16,13,27.10
2017,05,28,16,14,27.00
2017,05,28,16,15,26.90
2017,05,28,16,16,26.90
2017,05,28,16,17,27.00
2017,05,28,16,18,27.10
2017,05,28,16,19,27.20
2017,05,28,16,20,27.20
2017,05,28,16,21,27.20
2017,05,28,16,22,27.20
2017,05,28,16,23,27.20
2017,05,28,16,24,27.20
2017,05,28,16,25,27.20
2017,05,28,16,26,27.20
2017,05,28,16,27,27.10
2017,05,28,16,28,27.10
2017,05,28,16,29,27.00
2017,05,28,16,30,27.00
2017,05,28,16,31,27.00
2017,05,28,16,32,27.00
2017,05,28,16,33,27.10
2017,05,28,16,34,27.10
2017,05,28,16,35,27.10
2017,05,28,16,36,27.10
2017,05,28,16,37,27.10
2017,05,28,16,38,27.10
2017,05,28,16,39,27.10
2017,05,28,16,40,27.10
2017,05,28,16,41,27.10
2017,05,28,16,42,27.10
2017,05,28,16,43,27.10
2017,05,28,16,44,27.10
2017,05,28,16,45,27.00
2017,05,28,16,46,27.00
2017,05,28,16,47,26.90
2017,05,28,16,48,26.90
2017,05,28,16,49,26.90
2017,05,28,16,50,26.90
2017,05,28,16,51,26.80
2017,05,28,16,52,26.80
2017,05,28,16,53,26.80
2017,05,28,16,54,26.80
2017,05,28,16,55,26.80
2017,05,28,16,56,26.80
2017,05,28,16,57,26.90
2017,05,28,16,58,26.90
2017,05,28,16,59,27.00
2017,05,28,17,00,27.10
2017,05,28,17,01,27.10
2017,05,28,17,02,27.10
2017,05,28,17,03,27.00
2017,05,28,17,04,26.90
2017,05,28,17,05,26.90
2017,05,28,17,06,26.90
2017,05,28,17,07,26.90
2017,05,28,17,08,26.90
2017,05,28,17,09,26.90
2017,05,28,17,10,26.90
2017,05,28,17,11,27.00
2017,05,28,17,12,27.00
2017,05,28,17,13,27.00
2017,05,28,17,14,27.10
2017,05,28,17,15,27.20
2017,05,28,17,16,27.20
2017,05,28,17,17,27.30
2017,05,28,17,18,27.30
2017,05,28,17,19,27.40